Location: Boiro
(42.6475°N, 8.8834°W)
Time: 23:05:31
(UTC+01:00)

Transit 2A - Pass Details

Date: 07 December 2021
Orbit: 591 x 967 km, 66.7° (Epoch: 18 January)

Event Time Altitude Azimuth Distance (km) Brightness Sun altitude
Rises 03:02:35 0° 269° (W) 3,420 - -61.8°
Reaches altitude 10° 03:06:04 10° 290° (WNW) 2,557 - -61.3°
Maximum altitude 03:09:38 16° 327° (NNW) 2,214 - -60.7°
Drops below altitude 10° 03:13:21 10° 4° (N) 2,670 - -60.2°
Sets 03:17:07 0° 25° (NNE) 3,651 - -59.6°
